AirNav   ProFlight Series 2 Aviation Headset
 
 578 users online  

AL75 Gulf State Park Seaplane Base
Gulf Shores, Alabama, USA

GOING TO GULF SHORES?


FAA INFORMATION EFFECTIVE 16 JULY 2020

Location

FAA Identifier: AL75
Lat/Long: 30-15-47.8000N 087-38-12.8000W
30-15.796667N 087-38.213333W
30.2632778,-87.6368889
(estimated)
Elevation: 0 ft. / 0 m (estimated)
From city: 3 miles E of GULF SHORES, AL
Time zone: UTC -5 (UTC -6 during Standard Time)
Zip code: 36542

Seaplane Base Operations

Seaplane Base use: Private use. Permission required prior to landing
Activation date: 12/2005
Control tower: no
ARTCC: JACKSONVILLE CENTER
FSS: ANNISTON FLIGHT SERVICE STATION
Attendance: UNATNDD
Segmented circle: no

Seaplane Base Communications

WX AWOS-3PT at JKA (2.4 nm NW): 134.525 (251-968-7581)
WX AWOS-3PT at CQF (17 nm NW): 118.425 (251-928-3242)

Nearby radio navigation aids

VOR radial/distance  VOR name  Freq  Var
NUNr230/(20.0)SAUFLEY VOR108.8001E
BFMr130/30.1BROOKLEY VORTAC112.8004E

 
NDB name  Hdg/Dist  Freq  Var  ID
PICKENS248/25.932602WPKZ .--. -.- --..

Seaplane Base Services

Runway Information

Runway 6W/24W

Dimensions: 4330 x 300 ft. / 1320 x 91 m
Surface: water
RUNWAY 6W  RUNWAY 24W
Traffic pattern: leftleft

Seaplane Base Ownership and Management from official FAA records

Ownership: Privately-owned
Owner: DAVID M. WALTER
P.O. BOX 998
ORANGE BEACH, AL 36561
Phone 251-979-2200
Manager: DAVID M. WALTER
P.O. BOX 998
ORANGE BEACH, AL 36561
Phone 251-979-2200

Additional Remarks

FOR CD CTC PENSACOLA APCH AT 850-266-6884 OR 850-266-6885.

Instrument Procedures

There are no published instrument procedures at AL75.

Some nearby airports with instrument procedures:

KJKA - Jack Edwards National Airport (2 nm NW)
5R4 - Foley Municipal Airport (10 nm N)
KCQF - H L Sonny Callahan Airport (17 nm NW)
KNPA - Pensacola Naval Air Station/Forrest Sherman Field (17 nm E)
KPNS - Pensacola International Airport (27 nm NE)
 
Loc | Ops | Rwys | IFR | FBO | Links
Com | Nav | Svcs | Stats | Notes

Continental Services
AirBoss

 
Area around AL75 (Gulf State Park Seaplane Base)
 
Road maps at: MapQuest Bing Google
 
Aerial photo
No photo
 
Sectional chart

 
Airport distance calculator
Flying to Gulf State Park Seaplane Base? Find the distance to fly.

From to AL75

Sunrise and sunset
Times for 05-Aug-2020
 Local
(UTC-5)
 Zulu
(UTC)
Morning civil twilight05:4710:47
Sunrise06:1311:13
Sunset19:4000:40
Evening civil twilight20:0501:05

Current date and time
Zulu (UTC)  05-Aug-2020 05:09:44
Local (UTC-5)  05-Aug-2020 00:09:44
 
METAR
KJKA 
2nm NW 
050455Z AUTO 00000KT 10SM CLR 24/23 A2997 RMK AO2 T02400226 403310224
KCQF 
17nm NW 
050455Z AUTO 00000KT 10SM CLR 23/23 A2997 RMK AO2
KNPA 
17nm E 
050456Z AUTO 00000KT 10SM CLR 26/22 A2996 RMK AO2 SLP148 T02560222
TAF
KNPA 
17nm E 
0423/0523 22010KT 9999 FEW050 QNH2989INS FM050100 VRB05KT 9999 SKC QNH2989INS FM051700 17009KT 9999 SCT050 QNH2995INS FM051900 22010KT 9999 FEW050 FEW250 QNH2989INS AUTOMATED SENSOR METWATCH 0503 TIL 0511 T24/0512Z T33/0520Z FN20034
NOTAMs
Click for the latest NOTAMs
NOTAMs are issued by the DoD/FAA and will open in a separate window not controlled by AirNav.

 

 
 

Would you like to see your business listed on this page?

 If your business provides an interesting product or service to pilots, flight crews, aircraft, or users of the Gulf State Park Seaplane Base, you should consider listing it here.  To start the listing process, click on the button below
 
Add a business
 

Other Pages about Gulf State Park Seaplane Base

Update a link
 
Copyright © AirNav, LLC. All rights reserved. Privacy Policy  Contact